CW3556 Weather Reports


Display with metric or nautical units.
time (UTC)temp
F
wind
direction
speed
MPH
gust
MPH
rain 1hr
in
rain 24hr
in
rain mn
in
humidity
%
barometer
mb
20260510204002 70 348 4.0 9.0 0.00 0.20 0.00 38 1018.8
20260510203503 71 354 4.0 11.0 0.00 0.20 0.00 40 1018.7
20260510203024 71 358 3.0 11.0 0.00 0.20 0.00 40 1018.6
20260510202503 71 339 3.0 10.0 0.00 0.20 0.00 41 1018.6
20260510202003 70 350 3.0 10.0 0.00 0.20 0.00 41 1018.7
20260510201503 70 346 3.0 10.0 0.00 0.20 0.00 41 1018.6
20260510201003 70 336 4.0 12.0 0.00 0.20 0.00 42 1018.6
20260510200503 70 318 5.0 12.0 0.00 0.20 0.00 40 1018.7
20260510200024 70 318 6.0 13.0 0.00 0.20 0.00 43 1018.7
20260510195524 70 358 4.0 13.0 0.00 0.20 0.00 39 1018.7
20260510195003 70 36 3.0 10.0 0.00 0.20 0.00 44 1018.8
20260510194503 69 45 4.0 10.0 0.00 0.20 0.00 47 1018.7
20260510194003 69 26 5.0 13.0 0.00 0.20 0.00 43 1018.8
20260510193503 69 359 6.0 13.0 0.00 0.20 0.00 42 1018.9
20260510193003 69 7 4.0 12.0 0.00 0.20 0.00 42 1018.8
20260510192503 69 12 3.0 7.0 0.00 0.20 0.00 43 1018.9
20260510192003 68 351 3.0 9.0 0.00 0.20 0.00 42 1019.0
20260510191503 68 2 4.0 10.0 0.00 0.20 0.00 43 1018.9
20260510191003 68 356 4.0 10.0 0.00 0.20 0.00 43 1018.8
20260510190503 67 345 3.0 10.0 0.00 0.20 0.00 46 1018.8
20260510190003 67 346 3.0 8.0 0.00 0.20 0.00 43 1018.9
20260510185503 66 351 4.0 9.0 0.00 0.20 0.00 45 1018.8
20260510185003 67 358 3.0 9.0 0.00 0.20 0.00 43 1018.8
20260510184524 67 12 3.0 9.0 0.00 0.20 0.00 45 1018.7
20260510184003 67 360 3.0 7.0 0.00 0.20 0.00 46 1018.6
20260510183503 67 35 3.0 9.0 0.00 0.20 0.00 44 1018.6
20260510183003 67 26 4.0 9.0 0.00 0.20 0.00 44 1018.7
20260510182503 67 348 4.0 9.0 0.00 0.20 0.00 48 1018.6
20260510182003 66 350 4.0 10.0 0.00 0.20 0.00 46 1018.6
20260510181503 66 1 5.0 10.0 0.00 0.20 0.00 46 1018.7
20260510181003 66 4 5.0 12.0 0.00 0.20 0.00 44 1018.5
20260510180503 66 352 4.0 12.0 0.00 0.20 0.00 47 1018.5
20260510180003 66 358 5.0 11.0 0.00 0.20 0.00 43 1018.5
20260510175524 67 13 6.0 12.0 0.00 0.20 0.00 45 1018.7
20260510175003 67 3 5.0 13.0 0.00 0.20 0.00 46 1018.7
20260510174503 66 340 5.0 13.0 0.00 0.20 0.00 44 1018.7
20260510174003 66 354 5.0 10.0 0.00 0.20 0.00 47 1018.8
20260510173524 66 1 4.0 11.0 0.00 0.20 0.00 47 1018.8
20260510173003 66 347 3.0 11.0 0.00 0.20 0.00 48 1018.8
20260510172503 66 1 2.0 7.0 0.00 0.20 0.00 47 1018.8
20260510172024 66 13 4.0 10.0 0.00 0.20 0.00 48 1019.1
20260510171503 66 9 5.0 10.0 0.00 0.20 0.00 47 1019.0
20260510171003 66 9 4.0 10.0 0.00 0.20 0.00 49 1019.1
20260510170503 66 345 4.0 10.0 0.00 0.20 0.00 51 1019.1
20260510170003 66 338 4.0 10.0 0.00 0.20 0.00 46 1019.1
20260510165503 65 354 4.0 10.0 0.00 0.20 0.00 53 1019.1
20260510165024 64 8 4.0 10.0 0.00 0.20 0.00 54 1019.2
20260510164503 63 15 4.0 9.0 0.00 0.20 0.00 55 1019.2
20260510164003 63 360 3.0 8.0 0.00 0.20 0.00 55 1019.1
20260510163503 63 359 3.0 8.0 0.00 0.20 0.00 52 1019.2
20260510163003 63 16 3.0 8.0 0.00 0.20 0.00 53 1019.2
20260510162503 63 14 3.0 8.0 0.00 0.20 0.00 55 1019.1
20260510162024 63 360 2.0 6.0 0.00 0.20 0.00 53 1019.2
20260510161524 63 347 3.0 8.0 0.00 0.20 0.00 55 1019.2
20260510161003 63 343 3.0 9.0 0.00 0.20 0.00 53 1019.3
20260510160503 63 1 5.0 12.0 0.00 0.20 0.00 54 1019.3
20260510160003 63 2 5.0 12.0 0.00 0.20 0.00 57 1019.3
20260510155503 62 333 3.0 10.0 0.00 0.20 0.00 61 1019.2
20260510155024 62 332 4.0 8.0 0.00 0.20 0.00 66 1019.2
20260510154503 61 335 4.0 8.0 0.00 0.20 0.00 67 1019.2
20260510154003 60 326 3.0 8.0 0.00 0.20 0.00 65 1019.1
20260510153503 60 326 3.0 8.0 0.00 0.20 0.00 66 1019.3
20260510153024 59 320 4.0 9.0 0.00 0.20 0.00 65 1019.2
20260510152503 59 324 3.0 9.0 0.00 0.20 0.00 65 1019.0
20260510152003 59 334 2.0 8.0 0.00 0.20 0.00 65 1018.9
20260510151503 58 338 2.0 8.0 0.00 0.20 0.00 64 1018.9
20260510151003 58 342 3.0 8.0 0.00 0.20 0.00 64 1018.8
20260510150503 58 342 3.0 8.0 0.00 0.20 0.00 65 1018.7
20260510150003 58 340 3.0 7.0 0.00 0.20 0.00 66 1018.7
20260510145503 58 332 3.0 6.0 0.00 0.20 0.00 66 1018.7
20260510145024 58 324 2.0 6.0 0.00 0.20 0.00 65 1018.7
20260510144503 58 337 2.0 5.0 0.00 0.20 0.00 67 1018.7
20260510144003 58 354 2.0 6.0 0.00 0.20 0.00 67 1018.6
20260510143503 58 347 2.0 6.0 0.00 0.20 0.00 66 1018.5
20260510143003 58 330 3.0 9.0 0.00 0.20 0.00 67 1018.3
20260510142503 58 333 3.0 9.0 0.00 0.20 0.00 65 1018.4
20260510142003 58 343 3.0 9.0 0.00 0.20 0.00 67 1018.4
20260510141503 58 343 2.0 7.0 0.00 0.20 0.00 69 1018.2
20260510141003 58 334 2.0 6.0 0.00 0.20 0.00 69 1018.2
20260510140503 58 335 2.0 6.0 0.00 0.20 0.00 69 1018.1
20260510140003 57 1 2.0 6.0 0.00 0.20 0.00 70 1017.9
20260510135503 57 14 3.0 10.0 0.00 0.20 0.00 69 1017.8
20260510135003 57 4 4.0 10.0 0.00 0.20 0.00 70 1017.8
20260510134503 57 349 4.0 8.0 0.00 0.20 0.00 69 1017.8
20260510134003 57 356 3.0 8.0 0.00 0.20 0.00 68 1017.8
20260510133503 57 357 3.0 8.0 0.00 0.20 0.00 69 1017.7
20260510133003 57 341 3.0 8.0 0.00 0.20 0.00 69 1017.8
20260510132503 57 352 4.0 10.0 0.00 0.20 0.00 69 1017.8
20260510132003 57 358 3.0 10.0 0.00 0.20 0.00 71 1017.9
20260510131503 57 341 3.0 8.0 0.00 0.20 0.00 76 1017.7
20260510131003 56 353 3.0 7.0 0.00 0.20 0.00 76 1017.6
20260510130503 56 359 3.0 9.0 0.00 0.20 0.00 80 1017.4
20260510130003 55 347 3.0 9.0 0.00 0.20 0.00 82 1017.4
20260510125503 55 343 2.0 6.0 0.00 0.20 0.00 83 1017.4
20260510125003 54 335 2.0 6.0 0.00 0.20 0.00 85 1017.3
20260510124503 54 330 2.0 6.0 0.00 0.20 0.00 86 1017.2
20260510124003 54 344 2.0 9.0 0.00 0.20 0.00 86 1017.1
20260510123503 53 349 2.0 9.0 0.00 0.20 0.00 86 1016.9
20260510123003 53 342 2.0 5.0 0.00 0.20 0.00 86 1016.8
20260510122503 53 339 1.0 5.0 0.00 0.20 0.00 86 1016.8
20260510122003 52 330 1.0 4.0 0.00 0.20 0.00 86 1016.8
20260510121503 52 312 1.0 4.0 0.00 0.20 0.00 86 1016.7
20260510121003 51 305 2.0 4.0 0.00 0.20 0.00 85 1016.7
20260510120503 51 303 2.0 4.0 0.00 0.20 0.00 85 1016.6
20260510120003 51 304 2.0 5.0 0.00 0.20 0.00 85 1016.5
20260510115524 51 305 2.0 5.0 0.00 0.20 0.00 85 1016.3
20260510115003 51 312 1.0 4.0 0.00 0.20 0.00 85 1016.3
20260510114503 50 313 1.0 3.0 0.00 0.20 0.00 85 1016.1
20260510114003 50 0 0.0 0.0 0.00 0.20 0.00 85 1016.0
20260510113503 50 0 0.0 2.0 0.00 0.20 0.00 85 1016.0
20260510113003 50 321 1.0 3.0 0.00 0.20 0.00 85 1015.7
20260510112524 50 322 2.0 4.0 0.00 0.20 0.00 85 1015.7
20260510112003 50 326 1.0 4.0 0.00 0.20 0.00 85 1015.5
20260510111503 51 327 1.0 3.0 0.00 0.20 0.00 85 1015.5
20260510111003 51 328 1.0 3.0 0.00 0.20 0.00 85 1015.3
20260510110503 51 330 2.0 3.0 0.00 0.20 0.00 85 1015.3
20260510110003 51 326 2.0 5.0 0.00 0.20 0.00 85 1015.0
20260510105524 51 324 2.0 5.0 0.00 0.20 0.00 85 1015.0
20260510105003 52 335 2.0 5.0 0.00 0.20 0.00 85 1014.9
20260510104503 52 346 2.0 4.0 0.00 0.20 0.00 84 1014.9
20260510104003 52 340 2.0 6.0 0.00 0.20 0.00 84 1014.8
20260510103503 52 336 2.0 6.0 0.00 0.20 0.00 84 1014.7
20260510103002 52 328 2.0 5.0 0.00 0.20 0.00 84 1014.7
20260510102503 53 324 2.0 5.0 0.00 0.20 0.00 84 1014.7
20260510102003 53 334 2.0 5.0 0.00 0.20 0.00 84 1014.6
20260510101503 53 340 1.0 5.0 0.00 0.20 0.00 84 1014.4
20260510101024 53 333 1.0 5.0 0.00 0.20 0.00 84 1014.2
20260510100503 54 325 2.0 5.0 0.00 0.20 0.00 84 1014.2
20260510100024 54 325 2.0 5.0 0.00 0.20 0.00 84 1014.1
20260510095503 54 332 2.0 5.0 0.00 0.20 0.00 83 1014.0
20260510095003 54 325 2.0 5.0 0.00 0.20 0.00 83 1014.0
20260510094524 54 313 2.0 5.0 0.00 0.20 0.00 83 1014.1
20260510094003 54 311 3.0 5.0 0.00 0.20 0.00 83 1014.3
20260510093524 54 311 2.0 5.0 0.00 0.20 0.00 83 1014.1
20260510093024 55 305 2.0 5.0 0.00 0.20 0.00 83 1014.1
20260510092503 55 299 2.0 5.0 0.00 0.20 0.00 83 1014.0
20260510092024 55 299 1.0 4.0 0.00 0.20 0.00 83 1013.9
20260510091524 55 300 1.0 4.0 0.00 0.20 0.00 83 1013.9
20260510091003 55 300 2.0 5.0 0.00 0.20 0.00 83 1013.9
20260510090503 55 302 2.0 5.0 0.00 0.20 0.00 83 1013.8
20260510090003 55 306 1.0 3.0 0.00 0.20 0.00 83 1013.6
20260510085524 55 308 2.0 3.0 0.00 0.20 0.00 83 1013.4
20260510085003 55 309 1.0 3.0 0.00 0.20 0.00 83 1013.3
20260510084503 55 309 1.0 3.0 0.00 0.20 0.00 83 1013.2
20260510084003 56 310 1.0 3.0 0.00 0.20 0.00 83 1013.1
20260510083503 56 310 1.0 3.0 0.00 0.20 0.00 83 1012.9
20260510083003 56 310 1.0 2.0 0.00 0.20 0.00 83 1012.8
20260510082503 56 310 1.0 2.0 0.00 0.20 0.00 83 1012.8
20260510082003 56 310 1.0 2.0 0.00 0.20 0.00 83 1012.7
20260510081503 56 311 1.0 2.0 0.00 0.20 0.00 83 1012.5
20260510081024 57 312 1.0 3.0 0.00 0.20 0.00 83 1012.5
20260510080503 57 315 2.0 5.0 0.00 0.20 0.00 83 1012.3
20260510080003 57 322 2.0 5.0 0.00 0.20 0.00 83 1012.1
20260510075503 57 338 2.0 5.0 0.00 0.20 0.00 83 1012.1
20260510075003 58 339 2.0 5.0 0.00 0.20 0.00 83 1012.0
20260510074503 58 323 2.0 5.0 0.00 0.20 0.00 83 1012.0
20260510074003 58 313 3.0 5.0 0.00 0.20 0.00 83 1012.2
20260510073503 58 316 2.0 4.0 0.00 0.20 0.00 83 1012.2
20260510073003 58 319 1.0 4.0 0.00 0.20 0.00 83 1012.2
20260510072524 58 0 0.0 0.0 0.00 0.20 0.00 83 1012.1
20260510072003 58 339 1.0 3.0 0.00 0.20 0.00 83 1012.1
20260510071503 58 339 1.0 3.0 0.00 0.20 0.00 83 1012.0
20260510071003 58 0 0.0 3.0 0.00 0.20 0.00 83 1012.0
20260510070503 58 0 0.0 0.0 0.00 0.20 0.00 83 1012.0
20260510070003 58 0 0.0 1.0 0.00 0.20 0.00 83 1012.0
20260510065503 58 0 0.0 1.0 0.00 0.20 0.00 83 1012.1
20260510065003 58 0 0.0 2.0 0.00 0.20 0.00 83 1012.1
20260510064503 58 344 1.0 2.0 0.00 0.20 0.00 83 1012.0
20260510064003 58 344 1.0 2.0 0.00 0.20 0.00 83 1012.0
20260510063524 58 0 0.0 2.0 0.00 0.20 0.00 83 1012.0
20260510063003 58 0 0.0 2.0 0.00 0.20 0.00 83 1012.1
20260510062503 58 0 0.0 2.0 0.00 0.20 0.00 83 1012.0
20260510062003 59 346 1.0 3.0 0.00 0.20 0.00 83 1012.0
20260510061503 59 347 1.0 3.0 0.00 0.20 0.00 83 1011.9
20260510061003 59 349 1.0 3.0 0.00 0.20 0.00 83 1012.0
20260510060503 59 350 1.0 3.0 0.00 0.20 0.00 83 1012.1
20260510060003 59 354 1.0 3.0 0.00 0.20 0.00 84 1012.1
20260510055503 59 357 1.0 4.0 0.00 0.20 0.00 84 1011.9
20260510055003 59 356 1.0 4.0 0.00 0.20 0.00 84 1011.8
20260510054503 59 355 1.0 3.0 0.00 0.20 0.00 84 1011.8
20260510054003 59 355 2.0 4.0 0.00 0.20 0.00 84 1011.8
20260510053524 59 2 2.0 4.0 0.00 0.20 0.00 84 1011.7
20260510053024 59 14 1.0 4.0 0.00 0.20 0.00 84 1011.5
20260510052503 60 30 2.0 6.0 0.00 0.20 0.00 84 1011.4
20260510052003 60 14 3.0 6.0 0.00 0.20 0.00 84 1011.2
20260510051503 60 353 2.0 5.0 0.00 0.20 0.00 84 1011.3
20260510051024 60 345 1.0 4.0 0.01 0.20 0.00 84 1011.5
20260510050503 60 349 1.0 4.0 0.02 0.20 0.00 84 1011.6
20260510050004 60 5 2.0 8.0 0.02 0.20 0.00 84 1011.4
20260510045503 60 11 2.0 8.0 0.03 0.20 0.20 84 1011.3
20260510045003 60 5 2.0 7.0 0.04 0.20 0.20 84 1011.0
20260510044524 60 1 2.0 4.0 0.04 0.20 0.20 84 1011.1
20260510044024 60 12 2.0 6.0 0.05 0.20 0.20 84 1011.1
20260510043503 60 39 2.0 6.0 0.06 0.20 0.20 84 1011.1
20260510043003 60 92 1.0 3.0 0.07 0.20 0.20 84 1010.9
20260510042524 60 89 2.0 6.0 0.09 0.20 0.20 84 1010.6
20260510042024 60 110 3.0 6.0 0.11 0.20 0.20 84 1010.7
20260510041503 60 128 2.0 6.0 0.13 0.20 0.20 84 1010.6
20260510041003 60 113 2.0 6.0 0.16 0.19 0.19 84 1011.1
20260510040524 60 78 2.0 6.0 0.17 0.18 0.18 84 1011.1
20260510040003 61 24 2.0 6.0 0.18 0.18 0.18 85 1011.1
20260510035503 61 47 2.0 6.0 0.17 0.17 0.17 85 1011.6
20260510035024 61 113 3.0 8.0 0.16 0.16 0.16 85 1011.4
20260510034503 61 69 4.0 10.0 0.16 0.16 0.16 85 1010.9
20260510034024 61 32 4.0 10.0 0.15 0.15 0.15 84 1011.0
20260510033503 61 357 4.0 14.0 0.14 0.14 0.14 84 1011.6
20260510033003 61 343 5.0 14.0 0.13 0.13 0.13 84 1011.7
20260510032503 62 332 5.0 14.0 0.11 0.11 0.11 84 1012.0
20260510032003 62 327 8.0 16.0 0.09 0.09 0.09 84 1011.9
20260510031503 62 318 9.0 19.0 0.07 0.07 0.07 83 1012.1
20260510031003 63 314 9.0 20.0 0.03 0.04 0.03 82 1012.1
20260510030503 64 310 13.0 30.0 0.01 0.02 0.01 81 1011.9
20260510030003 65 308 17.0 40.0 0.00 0.02 0.00 79 1011.8
20260510025503 66 304 15.0 40.0 0.00 0.03 0.00 76 1011.0
20260510025003 66 296 7.0 31.0 0.00 0.04 0.00 74 1010.4
20260510024503 65 301 1.0 5.0 0.00 0.05 0.00 73 1009.1
20260510024003 65 0 0.0 2.0 0.00 0.06 0.00 74 1008.5
20260510023503 65 0 0.0 2.0 0.00 0.07 0.00 74 1008.4
20260510023024 65 0 0.0 0.0 0.00 0.08 0.00 73 1008.2
20260510022503 65 0 0.0 0.0 0.00 0.10 0.00 73 1008.1
20260510022024 65 0 0.0 0.0 0.00 0.12 0.00 73 1008.0
20260510021503 65 0 0.0 0.0 0.00 0.15 0.00 72 1008.0
20260510021003 66 0 0.0 0.0 0.00 0.18 0.00 71 1007.9
20260510020503 66 0 0.0 0.0 0.00 0.21 0.00 71 1007.9
20260510020003 66 0 0.0 0.0 0.00 0.23 0.00 70 1007.8
20260510015503 66 0 0.0 0.0 0.00 0.25 0.00 69 1007.7
20260510015003 67 0 0.0 0.0 0.00 0.28 0.00 69 1007.7
20260510014503 67 0 0.0 0.0 0.00 0.29 0.00 69 1007.5
20260510014024 68 0 0.0 0.0 0.00 0.32 0.00 69 1007.5
20260510013503 68 0 0.0 0.0 0.00 0.34 0.00 68 1007.4
20260510013003 69 0 0.0 0.0 0.00 0.36 0.00 67 1007.3
20260510012503 70 0 0.0 0.0 0.00 0.39 0.00 65 1007.3
20260510012003 70 0 0.0 0.0 0.00 0.39 0.00 64 1007.3
20260510011503 71 0 0.0 0.0 0.00 0.39 0.00 63 1007.2
20260510011024 72 0 0.0 0.0 0.00 0.39 0.00 62 1007.3
20260510010503 72 0 0.0 0.0 0.00 0.39 0.00 60 1007.3
20260510010003 73 0 0.0 0.0 0.00 0.39 0.00 59 1007.3
20260510005503 74 0 0.0 0.0 0.00 0.39 0.00 58 1007.2
20260510005003 74 0 0.0 0.0 0.00 0.39 0.00 56 1007.2
20260510004503 75 0 0.0 0.0 0.00 0.39 0.00 55 1007.1
20260510003524 76 0 0.0 0.0 0.00 0.40 0.00 53 1007.1
20260510003003 77 0 0.0 0.0 0.00 0.40 0.00 51 1007.0
20260510002503 77 0 0.0 1.0 0.00 0.40 0.00 50 1006.9
20260510002003 77 0 0.0 1.0 0.00 0.42 0.00 50 1006.9
20260510001503 78 0 0.0 1.0 0.00 0.42 0.00 47 1006.9
20260510001003 78 0 0.0 2.0 0.00 0.43 0.00 46 1006.9
20260510000503 78 301 1.0 3.0 0.00 0.43 0.00 46 1006.8
20260510000003 78 300 1.0 3.0 0.00 0.43 0.00 45 1006.8
20260509235503 78 0 0.0 2.0 0.00 0.44 0.00 45 1006.8
20260509235003 78 299 1.0 4.0 0.00 0.44 0.00 46 1006.8
20260509234503 78 296 2.0 4.0 0.00 0.44 0.00 44 1006.8
20260509234003 79 302 2.0 5.0 0.00 0.44 0.00 46 1006.8
20260509233503 79 300 3.0 5.0 0.00 0.44 0.00 44 1006.8
20260509233024 79 289 3.0 6.0 0.00 0.44 0.00 43 1006.8
20260509232524 79 287 3.0 6.0 0.00 0.44 0.00 44 1006.8
20260509232003 79 292 3.0 8.0 0.00 0.44 0.00 42 1006.8
20260509231503 79 283 4.0 8.0 0.00 0.44 0.00 42 1006.7
20260509231003 79 278 4.0 8.0 0.00 0.44 0.00 42 1006.8
20260509230503 79 292 4.0 8.0 0.00 0.44 0.00 42 1006.7
20260509230003 79 291 4.0 8.0 0.00 0.44 0.00 43 1006.7
20260509225503 79 281 4.0 8.0 0.00 0.44 0.00 43 1006.7
20260509225003 79 283 4.0 8.0 0.00 0.44 0.00 43 1006.7
20260509224503 79 290 3.0 7.0 0.00 0.44 0.00 43 1006.7
20260509224024 79 300 4.0 8.0 0.00 0.44 0.00 43 1006.7
20260509223503 79 303 5.0 9.0 0.00 0.44 0.00 42 1006.7
20260509223003 79 298 5.0 9.0 0.00 0.44 0.00 41 1006.8
20260509222524 79 298 5.0 11.0 0.00 0.44 0.00 41 1006.8
20260509222003 79 296 5.0 11.0 0.00 0.44 0.00 41 1006.8
20260509221503 79 266 4.0 9.0 0.00 0.44 0.00 44 1006.8
20260509221003 79 270 4.0 9.0 0.00 0.44 0.00 43 1006.7
20260509220503 79 285 5.0 10.0 0.00 0.44 0.00 42 1006.8
20260509220003 79 294 6.0 13.0 0.00 0.44 0.00 43 1006.8
20260509215503 79 297 6.0 13.0 0.00 0.44 0.00 41 1006.8
20260509215003 80 295 5.0 11.0 0.00 0.44 0.00 44 1006.8
20260509214503 80 295 5.0 10.0 0.00 0.44 0.00 44 1006.8
20260509214024 80 287 5.0 11.0 0.00 0.44 0.00 42 1006.8
20260509213524 80 281 6.0 11.0 0.00 0.44 0.00 41 1006.9
20260509213003 80 277 5.0 10.0 0.00 0.44 0.00 42 1006.9
20260509212524 79 289 5.0 11.0 0.00 0.44 0.00 45 1006.9
20260509212003 79 303 6.0 13.0 0.00 0.44 0.00 43 1007.0
20260509211503 79 307 6.0 13.0 0.00 0.44 0.00 44 1007.0
20260509211003 79 314 6.0 12.0 0.00 0.44 0.00 41 1007.0
20260509210503 80 296 5.0 12.0 0.00 0.44 0.00 41 1007.1
20260509210003 80 294 6.0 12.0 0.00 0.44 0.00 41 1007.1
20260509205524 80 301 5.0 10.0 0.00 0.44 0.00 41 1007.1
20260509205024 80 294 5.0 9.0 0.00 0.44 0.00 43 1007.1
20260509204503 80 298 7.0 13.0 0.00 0.44 0.00 40 1007.1